Change the Weather History Date:

Sunday, May 12, 2013

  Actual Average Record
Temperature  
Mean Temperature 74 °F 75 °F  
Max Temperature 79 °F 81 °F 86 °F (1981)
Min Temperature 69 °F 70 °F 62 °F (1954)
Degree Days  
Heating Degree Days 0 0  
Month to date heating degree days 0 0  
Since 1 July heating degree days 0 0  
Cooling Degree Days 9 10  
Month to date cooling degree days 99 120  
Year to date cooling degree days 861 1024  
Growing Degree Days 24 (Base 50)    
Moisture  
Dew Point 65 °F    
Average Humidity 73    
Maximum Humidity 84    
Minimum Humidity 62    
Precipitation  
Precipitation 0.03 in 0.07 in 1.84 in (2002)
Month to date precipitation 0.17 0.93  
Year to date precipitation 14.39 14.70  
Snow  
Snow 0.00 in - - ()
Month to date snowfall 0.0  
Since 1 July snowfall 0.0  
Snow Depth 0.00 in    
Sea Level Pressure  
Sea Level Pressure 30.12 in    
Wind  
Wind Speed 16 mph (NE)    
Max Wind Speed 21 mph    
Max Gust Speed 24 mph    
Visibility 10 miles    
Events Rain    
T = Trace of Precipitation, MM = Missing Value Source: NWS Daily Summary

Daily Weather History Graph

Daily Weather History Graph

Search for Another Location

Airport or City:

Trip Planner

Search our weather history database for the weather conditions in past years. The results will help you decide how hot, cold, wet, or windy it might be!

Date:

Astronomy

May. 12, 2013 Rise Set
Actual Time 5:59 AM HST 7:08 PM HST
Civil Twilight 5:35 AM HST 7:32 PM HST
Nautical Twilight 5:06 AM HST 8:00 PM HST
Astronomical Twilight 4:37 AM HST 8:29 PM HST
Moon 8:07 AM HST (5/12) 9:40 PM HST (5/12)
Length of Visible Light 13h 57m
Length of Day
13h 09m
Waxing Crescent, 8% of the Moon is Illuminated
May 12
Waxing Crescent
May 17
First Quarter
May 24
Full
May 31
Last Quarter
Jun 8
New

Hourly Weather History & Observations

Time (HST) Temp. Dew Point Humidity Pressure Visibility Wind Dir Wind Speed Gust Speed Precip Events Conditions
12:53 AM 72.0 °F 61.0 °F 68% 30.13 in 10.0 mi NE 17.3 mph - N/A   Mostly Cloudy
1:53 AM 72.0 °F 61.0 °F 68% 30.12 in 10.0 mi NE 17.3 mph - N/A   Partly Cloudy
2:28 AM 71.6 °F 62.6 °F 73% 30.12 in 10.0 mi NE 17.3 mph 23.0 mph N/A   Overcast
2:44 AM 71.6 °F 62.6 °F 73% 30.11 in 10.0 mi NE 16.1 mph - N/A   Overcast
2:53 AM 72.0 °F 62.1 °F 71% 30.10 in 10.0 mi NNE 17.3 mph - N/A   Overcast
3:53 AM 72.0 °F 62.1 °F 71% 30.09 in 10.0 mi NNE 13.8 mph - N/A   Overcast
4:53 AM 72.0 °F 62.1 °F 71% 30.09 in 10.0 mi NE 18.4 mph - N/A   Mostly Cloudy
5:00 AM 71.6 °F 62.6 °F 73% 30.10 in 10.0 mi NNE 15.0 mph - N/A   Mostly Cloudy
5:13 AM 71.6 °F 62.6 °F 73% 30.11 in 10.0 mi NE 13.8 mph - N/A   Mostly Cloudy
5:35 AM 69.8 °F 62.6 °F 78% 30.12 in 9.0 mi NNE 10.4 mph - 0.00 in Rain Light Rain
5:53 AM 70.0 °F 64.0 °F 81% 30.12 in 10.0 mi NNE 12.7 mph - 0.03 in Rain Light Rain
6:31 AM 71.6 °F 64.4 °F 78% 30.13 in 10.0 mi NNE 17.3 mph - 0.00 in   Overcast
6:53 AM 71.1 °F 63.0 °F 75% 30.14 in 10.0 mi NE 17.3 mph - 0.00 in   Mostly Cloudy
7:34 AM 71.6 °F 62.6 °F 73% 30.15 in 10.0 mi NE 18.4 mph - N/A   Overcast
7:53 AM 72.0 °F 64.0 °F 76% 30.16 in 10.0 mi NE 16.1 mph - N/A   Overcast
8:24 AM 73.4 °F 64.4 °F 73% 30.16 in 10.0 mi NE 16.1 mph - N/A   Overcast
8:53 AM 73.0 °F 63.0 °F 71% 30.17 in 10.0 mi NE 16.1 mph - N/A   Overcast
9:29 AM 75.2 °F 64.4 °F 69% 30.17 in 10.0 mi NNE 15.0 mph - N/A   Overcast
9:53 AM 75.0 °F 64.9 °F 71% 30.16 in 10.0 mi NE 15.0 mph - N/A   Overcast
10:03 AM 75.2 °F 64.4 °F 69% 30.17 in 10.0 mi NE 15.0 mph - N/A   Overcast
10:53 AM 78.1 °F 66.0 °F 66% 30.15 in 10.0 mi NE 16.1 mph - N/A   Overcast
11:53 AM 78.1 °F 64.9 °F 64% 30.15 in 10.0 mi NE 13.8 mph - N/A   Overcast
12:53 PM 77.0 °F 66.0 °F 69% 30.13 in 10.0 mi ENE 16.1 mph - N/A   Overcast
1:53 PM 77.0 °F 66.0 °F 69% 30.12 in 10.0 mi NE 13.8 mph - N/A   Overcast
2:06 PM 75.2 °F 64.4 °F 69% 30.12 in 10.0 mi ENE 16.1 mph - N/A   Overcast
2:24 PM 77.0 °F 64.4 °F 65% 30.11 in 10.0 mi NE 13.8 mph - N/A   Overcast
2:53 PM 78.1 °F 64.9 °F 64% 30.10 in 10.0 mi NE 13.8 mph - N/A   Overcast
3:18 PM 77.0 °F 66.2 °F 69% 30.10 in 10.0 mi ENE 13.8 mph - N/A   Overcast
3:36 PM 77.0 °F 66.2 °F 69% 30.09 in 10.0 mi ENE 17.3 mph - N/A   Overcast
3:53 PM 75.9 °F 68.0 °F 76% 30.09 in 10.0 mi ENE 13.8 mph - N/A   Overcast
4:53 PM 75.0 °F 66.9 °F 76% 30.08 in 10.0 mi ENE 15.0 mph - N/A   Overcast
5:46 PM 75.2 °F 66.2 °F 73% 30.07 in 10.0 mi NE 15.0 mph - N/A   Overcast
5:53 PM 75.0 °F 66.0 °F 73% 30.07 in 10.0 mi ENE 18.4 mph - N/A   Overcast
6:13 PM 75.2 °F 66.2 °F 73% 30.07 in 10.0 mi ENE 16.1 mph - N/A   Overcast
6:53 PM 73.9 °F 66.0 °F 76% 30.08 in 10.0 mi NE 18.4 mph - N/A   Overcast
7:53 PM 71.1 °F 68.0 °F 90% 30.10 in 9.0 mi NE 12.7 mph - 0.00 in Rain Light Rain
8:53 PM 73.0 °F 66.0 °F 79% 30.10 in 10.0 mi ENE 16.1 mph - 0.00 in   Overcast
9:53 PM 73.0 °F 66.0 °F 79% 30.11 in 10.0 mi ENE 19.6 mph - N/A   Overcast
10:53 PM 72.0 °F 66.9 °F 84% 30.12 in 10.0 mi NE 18.4 mph - N/A   Overcast
11:20 PM 73.4 °F 66.2 °F 78% 30.12 in 10.0 mi NE 16.1 mph 21.9 mph N/A   Overcast
11:53 PM 73.0 °F 66.9 °F 81% 30.11 in 10.0 mi NE 16.1 mph - N/A   Overcast